• Em Portugal
  • Lista de países
  • Para 7 dias
  • Temperatura da água
  • Mapas de satélite
  • Mapa do tempo
  • Widgets de tempo
  • user-avatar
    Iniciar Sessão

    Previsão horária em Macapa

    Hoje, 23 Agosto, Quarta-feira

    Tempo Temperatura Precipitação Vento Pressão Humidade
    00:00 +26°C° 0 mm 3 m/s 759 mmHg 85%
    01:00 +26°C° 0 mm 2 m/s 759 mmHg 87%
    02:00 +26°C° 0 mm 2 m/s 758 mmHg 90%
    03:00 +25°C° 0 mm 2 m/s 758 mmHg 93%
    04:00 +25°C° 0 mm 2 m/s 758 mmHg 94%
    05:00 +25°C° 0 mm 2 m/s 758 mmHg 95%
    06:00 +25°C° 0 mm 1 m/s 758 mmHg 96%
    07:00 +27°C° 0 mm 1 m/s 758 mmHg 86%
    08:00 +29°C° 0 mm 1 m/s 759 mmHg 76%
    09:00 +31°C° 0 mm 1 m/s 759 mmHg 66%
    10:00 +33°C° 0 mm 1 m/s 759 mmHg 57%
    11:00 +35°C° 0 mm 1 m/s 759 mmHg 48%
    12:00 +39°C° 0 mm 1 m/s 758 mmHg 39%
    13:00 +39°C° 0 mm 2 m/s 757 mmHg 37%
    14:00 +39°C° 0 mm 2 m/s 757 mmHg 35%
    15:00 +39°C° 0 mm 2 m/s 756 mmHg 33%
    16:00 +37°C° 0 mm 3 m/s 756 mmHg 41%
    17:00 +35°C° 0 mm 3 m/s 756 mmHg 48%
    18:00 +34°C° 0 mm 4 m/s 756 mmHg 55%
    19:00 +32°C° 0 mm 4 m/s 757 mmHg 62%
    20:00 +30°C° 0 mm 4 m/s 757 mmHg 69%
    21:00 +29°C° 0 mm 4 m/s 758 mmHg 76%
    22:00 +28°C° 0,1 mm 4 m/s 758 mmHg 79%
    23:00 +27°C° 0,1 mm 3 m/s 758 mmHg 83%

    Amanhã, 24 Agosto, Quinta-feira

    Tempo Temperatura Precipitação Vento Pressão Humidade
    00:00 +27°C° 0,1 mm 3 m/s 759 mmHg 87%
    01:00 +26°C° 0,3 mm 3 m/s 758 mmHg 90%
    02:00 +26°C° 0,3 mm 3 m/s 758 mmHg 92%
    03:00 +26°C° 0,3 mm 2 m/s 757 mmHg 94%
    04:00 +26°C° 0 mm 2 m/s 757 mmHg 95%
    05:00 +25°C° 0 mm 2 m/s 757 mmHg 95%
    06:00 +25°C° 0 mm 2 m/s 757 mmHg 95%
    07:00 +27°C° 0 mm 2 m/s 758 mmHg 87%
    08:00 +29°C° 0 mm 2 m/s 758 mmHg 79%
    09:00 +31°C° 0 mm 3 m/s 759 mmHg 71%
    10:00 +34°C° 0 mm 3 m/s 759 mmHg 60%
    11:00 +36°C° 0 mm 3 m/s 759 mmHg 50%
    12:00 +38°C° 0 mm 3 m/s 758 mmHg 39%
    13:00 +37°C° 0 mm 3 m/s 758 mmHg 40%
    14:00 +37°C° 0 mm 3 m/s 757 mmHg 41%
    15:00 +37°C° 0 mm 4 m/s 756 mmHg 41%
    16:00 +36°C° 0,1 mm 4 m/s 756 mmHg 48%
    17:00 +34°C° 0,1 mm 4 m/s 756 mmHg 55%
    18:00 +33°C° 0,1 mm 4 m/s 756 mmHg 62%
    19:00 +30°C° 0 mm 4 m/s 757 mmHg 67%
    20:00 +29°C° 0 mm 4 m/s 758 mmHg 73%
    21:00 +28°C° 0 mm 3 m/s 759 mmHg 78%
    22:00 +28°C° 0 mm 3 m/s 759 mmHg 80%
    23:00 +27°C° 0 mm 3 m/s 759 mmHg 82%

    Depois de amanhã, 25 Agosto, Sexta-feira

    Tempo Temperatura Precipitação Vento Pressão Humidade
    00:00 +27°C° 0 mm 3 m/s 759 mmHg 84%
    01:00 +26°C° 0 mm 3 m/s 758 mmHg 86%
    02:00 +26°C° 0 mm 3 m/s 758 mmHg 88%
    03:00 +26°C° 0 mm 2 m/s 757 mmHg 90%
    04:00 +26°C° 0 mm 2 m/s 758 mmHg 91%
    05:00 +26°C° 0 mm 2 m/s 758 mmHg 92%
    06:00 +25°C° 0 mm 2 m/s 758 mmHg 93%
    07:00 +27°C° 0 mm 3 m/s 758 mmHg 84%
    08:00 +29°C° 0 mm 3 m/s 759 mmHg 76%
    09:00 +31°C° 0 mm 3 m/s 759 mmHg 67%
    10:00 +34°C° 0 mm 3 m/s 759 mmHg 59%
    11:00 +35°C° 0 mm 3 m/s 759 mmHg 51%
    12:00 +37°C° 0 mm 3 m/s 758 mmHg 43%
    13:00 +37°C° 0 mm 3 m/s 758 mmHg 41%
    14:00 +38°C° 0 mm 3 m/s 757 mmHg 40%
    15:00 +38°C° 0 mm 3 m/s 756 mmHg 39%
    16:00 +36°C° 0,1 mm 3 m/s 756 mmHg 46%
    17:00 +35°C° 0,1 mm 4 m/s 756 mmHg 53%
    18:00 +33°C° 0,1 mm 4 m/s 756 mmHg 60%
    19:00 +32°C° 0,2 mm 4 m/s 757 mmHg 67%
    20:00 +29°C° 0,2 mm 4 m/s 758 mmHg 73%
    21:00 +28°C° 0,2 mm 3 m/s 758 mmHg 79%
    22:00 +28°C° 0,1 mm 3 m/s 759 mmHg 82%
    23:00 +27°C° 0,1 mm 3 m/s 759 mmHg 85%

    26 Agosto, Sábado

    Tempo Temperatura Precipitação Vento Pressão Humidade
    00:00 +27°C° 0,1 mm 3 m/s 759 mmHg 88%
    01:00 +26°C° 0,3 mm 3 m/s 758 mmHg 90%
    02:00 +26°C° 0,3 mm 3 m/s 758 mmHg 93%
    03:00 +26°C° 0,3 mm 2 m/s 757 mmHg 95%
    04:00 +25°C° 0,2 mm 2 m/s 757 mmHg 95%
    05:00 +25°C° 0,2 mm 2 m/s 758 mmHg 95%
    06:00 +25°C° 0,2 mm 2 m/s 758 mmHg 96%
    07:00 +27°C° 0 mm 2 m/s 758 mmHg 88%
    08:00 +29°C° 0 mm 2 m/s 759 mmHg 80%
    09:00 +30°C° 0 mm 3 m/s 759 mmHg 72%
    10:00 +33°C° 0 mm 3 m/s 759 mmHg 62%
    11:00 +35°C° 0 mm 3 m/s 758 mmHg 52%
    12:00 +37°C° 0 mm 3 m/s 758 mmHg 42%
    13:00 +37°C° 0 mm 3 m/s 757 mmHg 42%
    14:00 +38°C° 0 mm 3 m/s 756 mmHg 41%
    15:00 +38°C° 0 mm 3 m/s 756 mmHg 40%
    16:00 +36°C° 0 mm 3 m/s 756 mmHg 46%
    17:00 +35°C° 0 mm 3 m/s 756 mmHg 51%
    18:00 +34°C° 0 mm 3 m/s 756 mmHg 57%
    19:00 +31°C° 0 mm 3 m/s 757 mmHg 63%
    20:00 +30°C° 0 mm 3 m/s 757 mmHg 70%
    21:00 +28°C° 0 mm 4 m/s 758 mmHg 76%
    22:00 +28°C° 0 mm 3 m/s 758 mmHg 80%
    23:00 +27°C° 0 mm 3 m/s 758 mmHg 83%

    27 Agosto, Domingo

    Tempo Temperatura Precipitação Vento Pressão Humidade
    00:00 +27°C° 0 mm 3 m/s 758 mmHg 87%
    01:00 +27°C° 0 mm 3 m/s 758 mmHg 89%
    02:00 +26°C° 0 mm 3 m/s 757 mmHg 91%
    03:00 +26°C° 0 mm 2 m/s 757 mmHg 93%
    04:00 +26°C° 0,1 mm 2 m/s 757 mmHg 94%
    05:00 +26°C° 0,1 mm 2 m/s 757 mmHg 95%
    06:00 +25°C° 0,1 mm 2 m/s 758 mmHg 96%
    07:00 +27°C° 0,2 mm 2 m/s 758 mmHg 88%
    08:00 +29°C° 0,2 mm 2 m/s 758 mmHg 80%
    09:00 +31°C° 0,2 mm 2 m/s 759 mmHg 72%
    10:00 +34°C° 0,1 mm 2 m/s 758 mmHg 62%
    11:00 +36°C° 0,1 mm 3 m/s 758 mmHg 51%
    12:00 +38°C° 0,1 mm 3 m/s 758 mmHg 40%
    13:00 +38°C° 0,1 mm 3 m/s 757 mmHg 40%
    14:00 +38°C° 0,1 mm 3 m/s 756 mmHg 40%
    15:00 +38°C° 0,1 mm 4 m/s 756 mmHg 40%
    16:00 +36°C° 0,1 mm 4 m/s 756 mmHg 48%
    17:00 +34°C° 0,1 mm 4 m/s 756 mmHg 56%
    18:00 +33°C° 0,1 mm 4 m/s 757 mmHg 63%
    19:00 +30°C° 0 mm 4 m/s 757 mmHg 70%
    20:00 +29°C° 0 mm 4 m/s 758 mmHg 76%
    21:00 +28°C° 0 mm 3 m/s 758 mmHg 82%
    22:00 +27°C° 0 mm 3 m/s 758 mmHg 84%
    23:00 +27°C° 0 mm 3 m/s 758 mmHg 86%

    28 Agosto, Segunda-feira

    Tempo Temperatura Precipitação Vento Pressão Humidade
    00:00 +27°C° 0 mm 3 m/s 758 mmHg 88%
    01:00 +26°C° 0 mm 3 m/s 758 mmHg 89%
    02:00 +26°C° 0 mm 2 m/s 757 mmHg 91%
    03:00 +26°C° 0 mm 2 m/s 757 mmHg 92%
    04:00 +26°C° 0 mm 2 m/s 757 mmHg 93%
    05:00 +26°C° 0 mm 2 m/s 757 mmHg 94%
    06:00 +25°C° 0 mm 2 m/s 757 mmHg 94%
    07:00 +27°C° 0 mm 2 m/s 758 mmHg 86%
    08:00 +29°C° 0 mm 2 m/s 758 mmHg 78%
    09:00 +31°C° 0 mm 3 m/s 758 mmHg 71%
    10:00 +34°C° 0 mm 3 m/s 758 mmHg 62%
    11:00 +36°C° 0 mm 3 m/s 758 mmHg 54%
    12:00 +38°C° 0 mm 3 m/s 758 mmHg 46%
    13:00 +38°C° 0,3 mm 3 m/s 757 mmHg 45%
    14:00 +38°C° 0,3 mm 4 m/s 757 mmHg 44%
    15:00 +38°C° 0,3 mm 4 m/s 756 mmHg 43%
    16:00 +36°C° 0,2 mm 4 m/s 756 mmHg 51%
    17:00 +34°C° 0,2 mm 4 m/s 757 mmHg 58%
    18:00 +32°C° 0,2 mm 4 m/s 757 mmHg 66%
    19:00 +30°C° 0 mm 4 m/s 757 mmHg 71%
    20:00 +29°C° 0 mm 4 m/s 758 mmHg 76%
    21:00 +28°C° 0 mm 4 m/s 759 mmHg 81%
    22:00 +27°C° 0 mm 3 m/s 759 mmHg 83%
    23:00 +27°C° 0 mm 3 m/s 759 mmHg 85%
    Mostrar mais